LEMUR-2-NOOBNOOB (47538 NORAD) Tracking and Keplerian Element Data

This shows tracking and keplerian element data for the satellite.

Feedback or suggestion? Click here.




ElementValue
Catalog47538
NameLEMUR-2-NOOBNOOB
Epoch Orbit1168
Epoch Day99.88161625
Epoch Year2021
RAAN162.3588
Inclination97.5018
Eccentricity0.0010773
Argument of Perigee347.9205
Mean Anonmoly12.1766
Mean Motion15.12739973
Decay Rate1.236E-05
L11 47538U 21006DY 21099.88161625 .00001236 00000-0 74138-4 0 9993
L22 47538 97.5018 162.3588 0010773 347.9205 12.1766 15.12739973 11686

Live tracking and technical data element details for LEMUR-2-NOOBNOOB (NORAD 47538). LEMUR-2-NOOBNOOB can be tracked NOW for your location showing map with azimuth and elevation plus other details from your city location.

Track the satellite on the map from your city or location and see movement details for azimuth, elevation, latitude, longitude, range, height, and movement on the map or in text.







IsCatalogInMostPopularTable: catalog: 47538, numindb: 13
Update: records affected: 1



GetName: 47538 LEMUR-2-NOOBNOOB

Hit Count: updated at: Sat, 10 Apr 2021 19:48:56 GMT